Schneifelwetter: Wetterstation Hallschlag, 537 m . NN
Wetterdaten: Sonntag, 30.08.2009
Datum Zeit Temp. A. Feuchte A. Luftdruck Regen Wind Richtung Richtung Sonnenschein Helligkeit T Regen Taupunkt Windchill
30.08.2009 00:01 4,6 C 81 % 1021 hPa 0,0 l/m 0,0 km/h (0 Bft) W 265 0 min 0 lux 0,00 min 1,6 C 4,6 C
30.08.2009 00:16 4,3 C 80 % 1021 hPa 0,0 l/m 0,0 km/h (0 Bft) W 265 0 min 0 lux 0,00 min 1,2 C 4,3 C
30.08.2009 00:31 3,9 C 82 % 1021 hPa 0,0 l/m 0,0 km/h (0 Bft) W 260 0 min 0 lux 0,00 min 1,1 C 3,9 C
30.08.2009 00:45 3,9 C 83 % 1021 hPa 0,0 l/m 0,0 km/h (0 Bft) W 260 0 min 0 lux 0,00 min 1,3 C 3,9 C
30.08.2009 01:00 3,8 C 83 % 1021 hPa 0,0 l/m 0,0 km/h (0 Bft) W 260 0 min 0 lux 0,00 min 1,2 C 3,8 C
30.08.2009 01:15 3,8 C 83 % 1020 hPa 0,0 l/m 0,0 km/h (0 Bft) W 260 0 min 0 lux 0,00 min 1,2 C 3,8 C
30.08.2009 01:30 3,7 C 83 % 1020 hPa 0,0 l/m 0,0 km/h (0 Bft) W 260 0 min 0 lux 0,00 min 1,1 C 3,7 C
30.08.2009 01:45 3,5 C 83 % 1021 hPa 0,0 l/m 0,0 km/h (0 Bft) W 260 0 min 0 lux 0,00 min 0,9 C 3,5 C
30.08.2009 02:00 3,1 C 84 % 1021 hPa 0,0 l/m 0,0 km/h (0 Bft) W 260 0 min 0 lux 0,00 min 0,7 C 3,1 C
30.08.2009 02:15 2,7 C 84 % 1020 hPa 0,0 l/m 0,0 km/h (0 Bft) W 265 0 min 0 lux 0,00 min 0,3 C 2,7 C
30.08.2009 02:30 2,4 C 85 % 1020 hPa 0,0 l/m 0,0 km/h (0 Bft) W 260 0 min 0 lux 0,00 min 0,1 C 2,4 C
30.08.2009 02:45 2,2 C 85 % 1020 hPa 0,0 l/m 0,0 km/h (0 Bft) W 265 0 min 0 lux 0,00 min -0,1 C 2,2 C
30.08.2009 03:00 2,1 C 86 % 1020 hPa 0,0 l/m 0,0 km/h (0 Bft) W 265 0 min 0 lux 0,00 min 0,0 C 2,1 C
30.08.2009 03:15 2,1 C 87 % 1020 hPa 0,0 l/m 0,0 km/h (0 Bft) W 260 0 min 0 lux 0,00 min 0,2 C 2,1 C
30.08.2009 03:30 2,1 C 87 % 1020 hPa 0,0 l/m 0,0 km/h (0 Bft) W 260 0 min 0 lux 0,00 min 0,2 C 2,1 C
30.08.2009 03:45 2,1 C 87 % 1020 hPa 0,0 l/m 0,0 km/h (0 Bft) W 260 0 min 0 lux 0,00 min 0,2 C 2,1 C
30.08.2009 04:00 2,3 C 88 % 1020 hPa 0,0 l/m 0,0 km/h (0 Bft) W 260 0 min 0 lux 0,00 min 0,5 C 2,3 C
30.08.2009 04:15 2,6 C 89 % 1020 hPa 0,0 l/m 0,0 km/h (0 Bft) W 260 0 min 0 lux 0,00 min 1,0 C 2,6 C
30.08.2009 04:30 3,1 C 89 % 1020 hPa 0,0 l/m 5,0 km/h (1 Bft) W22.5 260 0 min 0 lux 0,00 min 1,5 C 3,1 C
30.08.2009 04:45 3,4 C 89 % 1020 hPa 0,0 l/m 3,8 km/h (1 Bft) W 270 0 min 0 lux 0,00 min 1,8 C 3,4 C
30.08.2009 05:00 3,5 C 89 % 1020 hPa 0,0 l/m 0,0 km/h (0 Bft) W 265 0 min 0 lux 0,00 min 1,9 C 3,5 C
30.08.2009 05:15 3,6 C 89 % 1020 hPa 0,0 l/m 0,0 km/h (0 Bft) W 260 0 min 0 lux 0,00 min 2,0 C 3,6 C
30.08.2009 05:30 3,6 C 89 % 1020 hPa 0,0 l/m 7,0 km/h (2 Bft) W22.5 260 0 min 0 lux 0,00 min 2,0 C 3,0 C
30.08.2009 05:45 3,9 C 89 % 1020 hPa 0,0 l/m 8,1 km/h (2 Bft) W22.5 265 0 min 0 lux 0,00 min 2,3 C 2,4 C
30.08.2009 06:00 4,1 C 89 % 1019 hPa 0,0 l/m 6,5 km/h (2 Bft) W22.5 275 0 min 0 lux 0,00 min 2,5 C 4,0 C
30.08.2009 06:15 3,7 C 88 % 1019 hPa 0,0 l/m 0,0 km/h (0 Bft) W 270 0 min 0 lux 0,00 min 1,9 C 3,7 C
30.08.2009 06:30 3,2 C 87 % 1019 hPa 0,0 l/m 0,0 km/h (0 Bft) W 270 0 min 73 lux 0,00 min 1,2 C 3,2 C
30.08.2009 06:45 2,9 C 88 % 1019 hPa 0,0 l/m 0,0 km/h (0 Bft) W 270 0 min 532 lux 0,00 min 1,1 C 2,9 C
30.08.2009 07:00 2,7 C 89 % 1020 hPa 0,0 l/m 0,0 km/h (0 Bft) W 270 0 min 1,98 klux 0,00 min 1,1 C 2,7 C
30.08.2009 07:15 2,8 C 90 % 1020 hPa 0,0 l/m 0,0 km/h (0 Bft) W 270 0 min 2,90 klux 0,00 min 1,3 C 2,8 C
30.08.2009 07:30 3,1 C 91 % 1020 hPa 0,0 l/m 0,0 km/h (0 Bft) W 270 0 min 13,9 klux 0,00 min 1,8 C 3,1 C
30.08.2009 07:45 3,4 C 91 % 1020 hPa 0,0 l/m 0,0 km/h (0 Bft) W 270 0 min 17,3 klux 0,00 min 2,1 C 3,4 C
30.08.2009 08:00 4,1 C 91 % 1020 hPa 0,0 l/m 0,0 km/h (0 Bft) W 270 0 min 21,6 klux 0,00 min 2,8 C 4,1 C
30.08.2009 08:15 4,9 C 92 % 1020 hPa 0,0 l/m 2,3 km/h (1 Bft) W-SW 245 0 min 26,3 klux 0,00 min 3,7 C 4,9 C
30.08.2009 08:31 6,4 C 92 % 1020 hPa 0,0 l/m 8,8 km/h (2 Bft) W-SW22.5 255 0 min 30,8 klux 0,00 min 5,2 C 4,5 C
30.08.2009 08:46 7,9 C 92 % 1020 hPa 0,0 l/m 16,3 km/h (3 Bft) W22.5 260 0 min 34,5 klux 0,00 min 6,7 C 2,0 C
30.08.2009 09:01 9,1 C 89 % 1020 hPa 0,0 l/m 14,0 km/h (3 Bft) W22.5 270 0 min 38,7 klux 0,00 min 7,4 C 4,5 C
30.08.2009 09:16 10,0 C 87 % 1020 hPa 0,0 l/m 13,9 km/h (3 Bft) W45 265 0 min 42,4 klux 0,00 min 7,9 C 5,6 C
30.08.2009 09:30 10,8 C 85 % 1020 hPa 0,0 l/m 15,1 km/h (3 Bft) W-SW67.5 240 0 min 45,9 klux 0,00 min 8,4 C 6,1 C
30.08.2009 09:45 11,9 C 82 % 1020 hPa 0,0 l/m 17,3 km/h (3 Bft) W45 270 15 min 48,8 klux 0,00 min 8,9 C 6,6 C
30.08.2009 10:00 12,7 C 81 % 1020 hPa 0,0 l/m 16,8 km/h (3 Bft) W45 265 15 min 52,2 klux 0,00 min 9,5 C 7,8 C
30.08.2009 10:16 13,6 C 78 % 1020 hPa 0,0 l/m 19,0 km/h (3 Bft) W22.5 270 16 min 54,3 klux 0,00 min 9,8 C 8,2 C
30.08.2009 10:31 14,4 C 75 % 1020 hPa 0,0 l/m 16,8 km/h (3 Bft) W-SW67.5 250 15 min 58,5 klux 0,00 min 10,0 C 9,9 C
30.08.2009 10:46 15,2 C 71 % 1020 hPa 0,0 l/m 21,4 km/h (4 Bft) W-SW45 255 15 min 64,7 klux 0,00 min 10,0 C 9,7 C
30.08.2009 11:01 16,0 C 69 % 1020 hPa 0,0 l/m 18,8 km/h (3 Bft) W45 270 15 min 76,6 klux 0,00 min 10,3 C 11,3 C
30.08.2009 11:15 16,2 C 67 % 1020 hPa 0,0 l/m 16,6 km/h (3 Bft) W-SW45 240 14 min 77,4 klux 0,00 min 10,1 C 12,2 C
30.08.2009 11:30 15,4 C 61 % 1020 hPa 0,0 l/m 18,5 km/h (3 Bft) W45 280 15 min 78,4 klux 0,00 min 7,9 C 10,7 C
30.08.2009 11:45 14,5 C 65 % 1020 hPa 0,0 l/m 23,5 km/h (4 Bft) W45 270 15 min 80,2 klux 0,00 min 8,0 C 8,3 C
30.08.2009 12:00 15,0 C 65 % 1020 hPa 0,0 l/m 25,9 km/h (4 Bft) W45 260 15 min 78,4 klux 0,00 min 8,5 C 8,4 C
30.08.2009 12:16 15,0 C 60 % 1020 hPa 0,0 l/m 22,4 km/h (4 Bft) W45 280 16 min 83,6 klux 0,00 min 7,3 C 9,2 C
30.08.2009 12:31 15,0 C 61 % 1020 hPa 0,0 l/m 23,6 km/h (4 Bft) W45 280 15 min 84,1 klux 0,00 min 7,5 C 8,9 C
30.08.2009 12:46 15,9 C 59 % 1020 hPa 0,0 l/m 21,9 km/h (4 Bft) W45 280 15 min 83,9 klux 0,00 min 7,9 C 10,5 C
30.08.2009 13:01 16,5 C 56 % 1020 hPa 0,0 l/m 23,3 km/h (4 Bft) W45 260 15 min 87,1 klux 0,00 min 7,7 C 11,0 C
30.08.2009 13:15 16,8 C 57 % 1020 hPa 0,0 l/m 22,0 km/h (4 Bft) W45 260 14 min 84,6 klux 0,00 min 8,2 C 11,6 C
30.08.2009 13:30 17,2 C 57 % 1020 hPa 0,0 l/m 27,8 km/h (4 Bft) W22.5 270 15 min 88,5 klux 0,00 min 8,6 C 11,1 C
30.08.2009 13:45 16,8 C 56 % 1020 hPa 0,0 l/m 26,5 km/h (4 Bft) W67.5 270 15 min 86,6 klux 0,00 min 8,0 C 10,8 C
30.08.2009 14:01 16,7 C 57 % 1020 hPa 0,0 l/m 22,8 km/h (4 Bft) SW67.5 230 16 min 87,7 klux 0,00 min 8,1 C 11,3 C
30.08.2009 14:16 16,2 C 57 % 1020 hPa 0,0 l/m 25,1 km/h (4 Bft) W67.5 265 15 min 96,0 klux 0,00 min 7,7 C 10,2 C
30.08.2009 14:31 17,4 C 57 % 1020 hPa 0,0 l/m 24,5 km/h (4 Bft) W45 260 15 min 98,4 klux 0,00 min 8,8 C 11,9 C
30.08.2009 14:46 18,0 C 55 % 1020 hPa 0,0 l/m 17,8 km/h (3 Bft) W-SW45 255 15 min 87,4 klux 0,00 min 8,8 C 14,1 C
30.08.2009 15:00 17,3 C 53 % 1020 hPa 0,0 l/m 21,8 km/h (4 Bft) W45 270 14 min 83,8 klux 0,00 min 7,6 C 12,3 C
30.08.2009 15:15 16,9 C 51 % 1020 hPa 0,0 l/m 20,4 km/h (4 Bft) W22.5 275 15 min 78,7 klux 0,00 min 6,7 C 12,1 C
30.08.2009 15:30 17,2 C 54 % 1020 hPa 0,0 l/m 23,8 km/h (4 Bft) W45 280 15 min 74,3 klux 0,00 min 7,8 C 11,8 C
30.08.2009 15:45 17,5 C 53 % 1020 hPa 0,0 l/m 17,4 km/h (3 Bft) W45 265 15 min 74,4 klux 0,00 min 7,8 C 13,6 C
30.08.2009 16:01 17,4 C 52 % 1020 hPa 0,0 l/m 19,1 km/h (3 Bft) W45 270 16 min 70,9 klux 0,00 min 7,4 C 13,0 C
30.08.2009 16:16 17,1 C 54 % 1020 hPa 0,0 l/m 13,5 km/h (3 Bft) W45 270 15 min 68,3 klux 0,00 min 7,7 C 14,2 C
30.08.2009 16:31 17,4 C 54 % 1019 hPa 0,0 l/m 21,1 km/h (4 Bft) W-NW45 290 15 min 64,7 klux 0,00 min 8,0 C 12,6 C
30.08.2009 16:45 17,2 C 54 % 1019 hPa 0,0 l/m 17,1 km/h (3 Bft) W45 270 14 min 61,5 klux 0,00 min 7,8 C 13,3 C
30.08.2009 17:00 17,4 C 54 % 1019 hPa 0,0 l/m 23,2 km/h (4 Bft) W45 260 15 min 56,0 klux 0,00 min 8,0 C 12,2 C
30.08.2009 17:15 17,6 C 53 % 1019 hPa 0,0 l/m 14,5 km/h (3 Bft) W45 270 15 min 53,9 klux 0,00 min 7,9 C 14,5 C
30.08.2009 17:30 17,6 C 55 % 1019 hPa 0,0 l/m 18,5 km/h (3 Bft) W22.5 270 15 min 50,2 klux 0,00 min 8,5 C 13,4 C
30.08.2009 17:46 17,6 C 53 % 1019 hPa 0,0 l/m 24,2 km/h (4 Bft) W45 260 16 min 47,7 klux 0,00 min 7,9 C 12,3 C
30.08.2009 18:01 17,4 C 54 % 1019 hPa 0,0 l/m 19,8 km/h (3 Bft) W45 265 0 min 42,6 klux 0,00 min 8,0 C 12,9 C
30.08.2009 18:16 17,3 C 54 % 1019 hPa 0,0 l/m 14,5 km/h (3 Bft) W-SW45 250 0 min 40,0 klux 0,00 min 7,9 C 14,1 C
30.08.2009 18:31 17,1 C 54 % 1019 hPa 0,0 l/m 13,8 km/h (3 Bft) W-SW45 255 0 min 36,5 klux 0,00 min 7,7 C 14,1 C
30.08.2009 18:45 16,8 C 55 % 1019 hPa 0,0 l/m 20,4 km/h (4 Bft) W-SW22.5 250 0 min 33,2 klux 0,00 min 7,7 C 12,0 C
30.08.2009 19:00 16,5 C 56 % 1019 hPa 0,0 l/m 12,4 km/h (3 Bft) W22.5 280 0 min 28,5 klux 0,00 min 7,7 C 13,9 C
30.08.2009 19:15 16,2 C 57 % 1019 hPa 0,0 l/m 10,6 km/h (2 Bft) W22.5 260 0 min 24,4 klux 0,00 min 7,7 C 14,2 C
30.08.2009 19:31 16,2 C 58 % 1019 hPa 0,0 l/m 7,9 km/h (2 Bft) W22.5 280 0 min 20,3 klux 0,00 min 7,9 C 15,4 C
30.08.2009 19:46 16,2 C 58 % 1019 hPa 0,0 l/m 7,3 km/h (2 Bft) W22.5 270 0 min 15,2 klux 0,00 min 7,9 C 15,7 C
30.08.2009 20:01 15,2 C 59 % 1019 hPa 0,0 l/m 4,6 km/h (1 Bft) W 260 0 min 9,8 klux 0,00 min 7,2 C 15,2 C
30.08.2009 20:16 14,2 C 61 % 1019 hPa 0,0 l/m 1,0 km/h (0 Bft) W-SW 255 0 min 2,46 klux 0,00 min 6,8 C 14,2 C
30.08.2009 20:30 12,7 C 64 % 1019 hPa 0,0 l/m 1,9 km/h (1 Bft) W-SW 255 0 min 1,20 klux 0,00 min 6,1 C 12,7 C
30.08.2009 20:45 11,7 C 66 % 1019 hPa 0,0 l/m 0,1 km/h (0 Bft) W-SW 255 0 min 280 lux 0,00 min 5,6 C 11,7 C
30.08.2009 21:00 10,8 C 68 % 1019 hPa 0,0 l/m 0,0 km/h (0 Bft) W-SW 255 0 min 24 lux 0,00 min 5,1 C 10,8 C
30.08.2009 21:16 10,1 C 70 % 1020 hPa 0,0 l/m 0,0 km/h (0 Bft) W-SW 255 0 min 6 lux 0,00 min 4,9 C 10,1 C
30.08.2009 21:31 9,5 C 72 % 1020 hPa 0,0 l/m 0,0 km/h (0 Bft) W-SW 255 0 min 0 lux 0,00 min 4,7 C 9,5 C
30.08.2009 21:46 9,0 C 74 % 1020 hPa 0,0 l/m 0,0 km/h (0 Bft) W-SW 255 0 min 0 lux 0,00 min 4,6 C 9,0 C
30.08.2009 22:00 8,5 C 75 % 1020 hPa 0,0 l/m 0,0 km/h (0 Bft) W-SW 255 0 min 0 lux 0,00 min 4,3 C 8,5 C
30.08.2009 22:15 8,2 C 76 % 1020 hPa 0,0 l/m 0,0 km/h (0 Bft) W-SW 255 0 min 0 lux 0,00 min 4,2 C 8,2 C
30.08.2009 22:30 7,6 C 77 % 1020 hPa 0,0 l/m 0,0 km/h (0 Bft) W-SW 255 0 min 0 lux 0,00 min 3,8 C 7,6 C
30.08.2009 22:45 7,2 C 79 % 1020 hPa 0,0 l/m 0,0 km/h (0 Bft) W-SW 255 0 min 0 lux 0,00 min 3,8 C 7,2 C
30.08.2009 23:01 6,9 C 80 % 1020 hPa 0,0 l/m 0,0 km/h (0 Bft) W-SW 255 0 min 0 lux 0,00 min 3,7 C 6,9 C
30.08.2009 23:16 6,7 C 80 % 1020 hPa 0,0 l/m 0,0 km/h (0 Bft) W-SW 255 0 min 0 lux 0,00 min 3,5 C 6,7 C
30.08.2009 23:31 6,3 C 81 % 1020 hPa 0,0 l/m 0,0 km/h (0 Bft) W-SW 255 0 min 0 lux 0,00 min 3,3 C 6,3 C
30.08.2009 23:45 6,0 C 83 % 1019 hPa 0,0 l/m 0,0 km/h (0 Bft) W-SW 255 0 min 0 lux 0,00 min 3,3 C 6,0 C
30.08.2009 23:54 6,0 C 82 % 1019 hPa 0,0 l/m 0,0 km/h (0 Bft) W-SW 255 0 min 0 lux 0,00 min 3,2 C 6,0 C
_ Min-Zeit 03:00 15:15 06:00 - 00:01 - - - - - 02:45 08:46
Minimum _ 2,1 C 51 % 1019 hPa - 0,0 km/h (0 Bft) - - - - - -0,1 C 2,0 C
_ Max-Zeit 14:46 08:15 00:01 00:01 13:30 - - 10:16 14:31 00:01 11:01 19:46
Maximum _ 18,0 C 92 % 1021 hPa 0,0 l/m 27,8 km/h
W (4 Bft)
- - 16 min 98,4 klux 0,00 min 10,3 C 15,7 C
Durchschnitt _ 10,1 C 73 % 1020 hPa #0,0 l/m 9,3 km/h (2 Bft) W - #8:16 h 30,4 klux #0 min. 5,1 C 7,9 C